Wind_Speed
10 10 9 9 9 8 8 8 8 8 7 7 6 6 6 6 6 6 6 6 6 6 6 6 6 7 7 8 8 9 10 11 12 13 15 12 8 5 4 3 1 2 2 1 1 2 2 2 2 1 1 1 2 2 2 2 3 3 3 3 0 2 3 4 6 5 3 3 4 4 3 1 4 7 7 6 8 14 18 18 14 10 9 10 11 11 12 13
11 11 11 10 10 9 9 9 9 8 8 8 7 7 7 7 7 6 6 6 6 6 6 7 7 7 8 9 9 10 11 12 14 14 12 7 4 6 5 2 0 2 3 2 2 3 3 4 3 2 1 2 2 1 1 2 2 3 3 2 2 5 4 5 7 5 3 3 5 5 4 4 5 7 7 4 8 13 16 20 15 10 12 14 14 13 13 13
12 12 12 11 11 10 10 10 9 9 8 8 8 8 7 7 7 7 7 7 7 8 8 8 8 9 9 10 10 11 12 15 15 10 4 4 8 8 4 0 2 3 4 3 4 5 5 5 4 3 2 2 1 1 0 1 0 1 3 1 5 6 4 6 7 6 4 5 6 6 6 5 7 7 5 3 8 10 10 14 13 13 19 21 18 15 13 12
13 13 12 11 11 11 11 10 10 9 9 8 8 8 8 8 8 8 8 8 9 9 9 9 9 10 10 11 12 12 14 15 9 1 5 9 9 5 1 3 4 6 4 4 5 7 7 5 5 4 2 1 0 1 1 1 2 1 4 3 4 4 2 6 7 6 4 4 6 7 6 7 8 6 5 5 6 8 11 13 12 16 22 20 15 12 10 9
14 13 13 12 12 11 11 10 10 9 9 9 9 9 9 9 9 9 9 10 10 10 11 11 11 11 12 12 12 13 11 8 1 7 7 7 5 2 4 6 7 7 5 4 7 8 8 6 5 5 2 1 0 0 2 3 3 2 4 5 5 3 2 8 7 5 4 5 7 8 7 8 8 7 9 7 3 9 15 16 15 18 19 15 10 8 8 7
14 14 13 13 12 12 11 11 10 10 10 10 10 10 10 10 10 10 10 11 11 12 12 12 12 12 13 13 12 11 7 2 4 5 6 7 6 7 8 9 9 9 5 5 8 9 8 7 6 5 3 0 1 2 1 3 5 2 4 6 7 6 6 11 11 9 10 9 8 8 9 11 9 10 12 11 12 18 19 16 15 14 10 8 7 5 5 5
15 15 14 14 13 12 12 11 11 11 11 11 11 11 11 11 11 11 11 11 12 12 13 13 12 12 12 12 11 9 8 8 7 7 9 10 10 11 11 10 9 8 5 6 8 9 8 7 7 5 2 1 2 3 1 2 5 3 3 5 6 7 8 13 14 14 15 14 13 11 11 14 10 8 11 16 19 19 15 11 8 6 6 6 5 5 5 4
17 16 15 15 14 13 13 12 12 12 12 11 11 11 11 11 11 11 11 11 12 12 12 12 11 11 11 11 10 8 10 12 9 9 12 13 14 13 11 9 7 6 4 6 7 8 8 9 9 6 2 1 2 3 1 2 2 4 4 5 5 8 10 14 16 18 19 17 16 11 12 17 13 8 10 17 16 11 8 5 5 4 5 6 5 5 4 2
17 17 16 15 15 14 14 13 13 12 12 12 11 11 11 11 11 11 11 11 11 11 12 12 11 11 10 10 8 6 9 9 6 7 9 12 14 12 10 9 7 4 3 5 7 9 9 9 10 8 4 2 3 2 1 0 2 4 5 5 7 11 14 16 18 19 17 15 14 9 13 15 8 4 9 13 9 5 3 3 3 4 7 7 6 4 2 2
18 17 16 16 15 15 14 14 13 13 12 12 12 12 12 12 11 11 11 11 11 11 11 10 10 10 9 9 6 4 7 7 5 6 7 9 10 10 10 9 8 6 4 5 8 10 11 9 8 8 5 2 3 2 1 2 1 2 3 6 10 13 15 15 17 20 16 13 13 9 10 9 0 2 5 4 3 3 3 3 1 5 7 8 5 3 2 3
18 17 16 16 15 15 14 14 13 13 12 12 12 12 12 12 11 11 11 11 11 10 10 10 10 9 9 9 9 8 8 8 7 8 7 8 9 9 9 9 9 7 6 7 9 11 12 10 6 6 4 2 3 2 2 2 1 2 5 7 10 12 14 15 14 15 10 6 7 7 5 3 3 3 6 1 6 4 2 2 1 4 5 4 3 3 3 3
18 17 16 16 15 14 14 14 13 13 13 13 12 12 12 11 11 11 10 10 10 10 10 10 9 10 9 10 14 14 12 12 11 11 11 10 10 10 10 11 10 8 8 9 10 12 12 11 8 6 4 3 3 0 1 1 2 3 4 5 9 9 10 13 7 3 1 1 3 2 3 3 2 7 9 2 3 3 3 3 2 3 1 1 2 3 3 4
17 16 16 15 14 14 14 14 13 13 13 13 12 12 11 11 10 10 10 10 10 10 10 10 10 11 10 11 14 13 12 12 13 13 14 12 12 12 12 12 11 10 9 9 10 11 12 11 9 7 5 4 3 1 2 3 2 3 2 1 5 7 6 6 1 2 2 2 4 4 2 6 6 12 10 2 3 2 3 4 4 4 3 3 2 2 2 3
17 16 15 15 14 14 14 14 13 13 13 13 12 11 11 10 10 10 10 10 11 11 10 11 11 11 10 11 13 13 12 12 12 13 14 14 14 13 13 12 11 9 9 10 10 10 10 10 9 7 4 3 3 2 2 4 2 1 2 2 3 3 5 6 2 1 3 2 5 5 2 6 8 12 7 3 3 3 3 6 6 5 5 4 3 1 1 2
17 16 15 15 15 15 14 14 14 14 13 12 11 11 11 10 10 10 10 10 10 11 11 11 11 10 10 12 13 12 12 13 14 15 15 15 13 12 11 9 9 9 10 10 10 9 8 8 8 5 3 3 3 2 2 4 3 2 1 3 3 1 5 10 6 4 3 1 4 6 2 6 9 11 5 8 4 4 3 8 7 6 6 4 3 2 1 1
18 17 16 16 16 15 15 14 14 14 13 11 11 11 11 10 10 10 10 11 10 11 11 11 12 10 8 10 11 10 10 11 12 13 14 13 12 9 8 7 8 9 9 9 9 9 8 7 5 4 4 4 4 4 3 4 4 3 1 3 3 2 3 8 5 2 3 1 2 3 2 3 6 8 4 9 7 3 6 9 8 7 6 5 4 4 3 2
18 17 17 17 17 16 15 15 15 14 13 11 11 11 11 11 11 10 11 11 11 12 12 11 10 9 9 11 10 9 10 9 10 10 11 10 9 7 7 7 8 9 8 8 8 8 8 7 5 3 1 2 3 4 3 3 5 3 0 2 4 3 2 4 4 3 3 3 1 1 2 5 8 13 9 11 7 1 10 11 10 8 7 7 6 5 4 4
19 18 18 17 17 16 15 15 15 14 13 11 11 11 10 10 10 11 11 12 12 10 10 11 7 4 8 13 11 9 8 9 10 10 9 8 8 7 7 7 7 8 7 6 7 8 7 5 4 1 2 2 2 5 3 5 5 3 3 2 3 2 4 5 4 3 5 4 2 1 4 8 11 13 9 11 4 5 13 13 11 9 8 8 7 6 6 6
20 19 19 19 17 16 16 16 15 15 13 12 11 10 10 10 10 12 13 13 11 7 5 8 9 4 3 6 7 8 7 7 8 9 10 9 8 8 8 7 7 9 8 5 5 7 6 3 3 1 1 3 6 8 9 9 7 6 5 4 4 4 5 5 5 5 2 4 5 5 6 8 11 10 8 10 4 11 14 13 11 10 10 9 9 9 8 8
22 20 20 20 18 17 16 16 16 15 13 12 11 10 9 8 6 8 12 15 17 15 12 11 11 12 9 5 5 7 7 8 9 11 11 10 10 9 9 8 7 7 5 4 3 4 5 3 3 6 7 8 10 11 10 5 5 5 3 3 4 5 6 5 5 5 1 1 6 6 4 7 11 7 8 8 8 13 12 12 12 11 11 11 11 11 10 11
23 22 22 20 19 18 17 17 16 15 14 13 12 10 8 6 3 4 7 11 17 19 20 19 17 18 18 13 12 11 9 9 10 12 12 12 12 10 9 9 6 3 2 3 4 3 4 4 8 11 9 8 7 9 7 2 3 3 2 2 4 5 6 7 6 5 1 4 4 2 2 8 10 4 8 7 8 8 8 11 12 12 12 12 12 13 12 12
24 24 23 21 20 18 17 17 16 15 14 13 13 12 9 8 8 8 7 8 14 18 20 22 23 25 24 22 21 18 13 9 10 13 14 14 15 11 10 8 4 3 2 3 5 2 2 4 12 11 4 3 2 4 5 3 2 2 2 2 4 4 4 7 6 5 0 4 4 1 3 8 7 2 7 8 9 8 9 12 12 13 13 13 13 14 14 14
26 25 24 22 19 18 17 16 16 15 14 14 13 13 11 9 9 11 8 6 12 17 19 22 25 28 29 26 26 23 17 13 11 14 15 16 18 14 11 8 4 3 3 4 5 4 3 7 11 7 5 4 2 4 7 3 2 2 3 3 4 3 1 4 5 5 2 1 2 2 3 6 4 2 6 8 11 13 13 14 13 13 13 13 14 15 15 16
26 25 24 21 19 18 17 16 16 15 14 14 13 12 11 9 8 8 7 4 7 11 16 21 22 25 28 25 22 20 19 16 10 12 18 20 18 12 9 9 6 3 4 7 8 6 7 8 3 4 6 6 4 4 6 5 1 3 5 6 5 4 5 6 4 5 4 3 2 1 3 5 4 3 2 6 10 13 13 14 14 12 13 13 14 16 16 17
27 26 24 22 20 18 17 16 16 16 15 14 13 11 9 8 7 5 3 2 5 6 9 14 16 18 21 19 17 15 13 14 12 11 17 22 20 10 6 8 6 4 6 6 5 5 9 8 2 5 3 5 5 6 5 7 3 4 6 9 9 8 8 6 2 5 4 4 3 2 3 5 4 2 3 4 4 6 7 10 12 11 12 13 14 16 16 18
29 28 24 22 21 18 15 15 16 16 15 14 12 11 9 7 4 2 0 2 4 4 3 8 9 9 12 11 12 11 4 7 12 13 18 22 21 11 5 5 4 4 5 5 3 3 5 6 4 5 4 6 6 5 5 7 5 3 5 8 9 7 6 5 1 2 0 3 2 2 1 5 5 1 4 5 4 4 4 6 8 10 11 13 15 16 16 19
29 28 24 22 21 20 18 15 16 17 15 14 13 12 9 7 5 2 2 3 5 4 5 6 7 6 8 9 14 12 2 4 8 12 19 21 18 12 6 4 2 2 4 5 1 2 3 3 2 5 5 5 5 5 6 7 7 3 4 6 7 6 6 5 5 4 3 2 4 3 2 3 5 3 4 6 6 3 2 3 5 9 11 13 15 15 17 19
29 27 25 24 24 23 21 17 15 17 16 13 14 14 10 9 7 3 3 3 3 4 5 4 6 6 8 13 16 9 3 6 6 7 16 19 16 10 5 5 6 4 3 6 4 3 2 2 4 6 5 4 6 4 7 9 4 5 3 6 6 6 6 4 5 3 1 2 4 4 1 2 6 3 1 3 3 3 5 5 5 9 12 13 15 15 17 19
28 27 25 23 21 20 21 19 17 18 17 13 14 15 11 11 7 4 2 3 2 4 3 5 7 6 9 13 10 4 4 4 2 6 13 14 13 6 2 6 6 4 2 3 4 4 0 2 4 7 5 5 4 1 6 9 4 4 6 7 5 5 5 4 4 3 2 1 4 6 4 2 5 3 3 2 4 6 6 4 6 10 13 13 15 16 17 20
30 27 23 21 21 21 22 22 20 18 17 15 15 15 13 11 6 3 4 5 1 2 3 6 6 6 9 8 2 1 3 1 3 10 9 7 9 5 3 4 4 4 2 4 1 4 2 1 1 3 4 5 4 3 1 4 3 7 7 5 6 5 4 3 2 4 2 3 5 9 9 5 4 4 4 4 3 4 6 5 6 10 14 15 16 17 19 21
30 27 24 24 27 27 26 27 24 20 19 16 15 16 14 7 3 3 7 2 2 2 4 4 3 5 8 6 2 2 2 1 4 9 5 3 5 4 4 4 3 4 3 4 3 5 4 2 2 2 4 5 7 5 3 3 3 6 4 4 3 4 4 4 4 3 1 5 3 4 5 5 5 5 3 4 3 2 5 7 9 12 16 19 19 20 21 21
32 28 27 28 31 31 29 29 25 21 20 18 18 18 11 2 3 5 4 2 1 4 4 4 3 5 6 3 3 4 2 1 3 6 4 3 4 4 3 4 4 3 2 4 3 4 3 4 3 1 3 5 6 4 3 5 4 4 4 5 3 2 3 2 3 0 3 6 3 1 1 2 7 6 3 4 4 4 6 8 14 20 22 23 23 22 22 22
33 31 30 31 32 32 32 29 24 23 21 20 20 15 6 3 7 7 5 3 2 3 4 4 3 5 7 4 2 4 2 2 4 3 2 3 3 4 3 2 6 4 1 3 2 1 3 5 1 1 2 7 8 5 2 1 2 4 4 5 4 2 1 3 3 1 4 5 2 1 2 2 5 3 3 4 5 7 9 11 18 27 29 28 26 25 24 23
33 33 34 35 33 34 34 29 26 24 24 25 21 10 4 7 6 7 10 7 2 2 3 4 5 5 6 4 4 5 3 2 5 4 2 3 3 4 4 4 5 4 3 3 2 4 2 4 3 5 2 6 9 6 6 5 4 3 3 4 4 4 4 4 3 3 4 4 3 1 2 3 3 1 2 3 3 3 3 9 19 26 29 29 27 26 26 25
34 34 37 37 37 38 36 32 30 27 29 29 17 5 9 10 3 4 9 6 2 2 2 3 6 6 4 3 3 5 4 3 4 5 3 4 4 4 5 6 6 5 4 3 2 3 3 5 6 2 0 6 7 4 6 7 2 2 2 3 2 4 4 2 3 5 3 2 3 2 3 4 4 1 1 2 4 5 6 13 20 24 26 27 27 27 27 25
33 35 38 39 42 42 37 36 34 32 35 28 10 7 11 7 2 4 5 5 5 5 5 3 3 4 4 3 2 4 3 1 4 4 2 3 3 5 4 4 8 9 6 5 3 2 2 4 5 2 2 2 4 4 4 3 3 2 2 3 4 4 5 2 2 1 3 2 4 2 3 5 1 1 3 4 4 5 5 11 17 22 25 26 27 28 28 26
34 36 39 42 44 41 39 39 37 38 39 24 8 10 7 2 3 4 3 6 7 8 8 4 3 5 5 4 3 5 3 1 3 3 3 3 3 5 5 4 7 13 11 6 2 3 4 3 5 2 2 2 2 4 3 3 4 5 2 5 3 2 3 3 1 2 1 4 4 1 5 4 2 2 2 3 0 2 4 7 12 18 23 25 27 29 28 27
38 39 41 45 44 40 39 38 39 41 34 15 9 13 5 2 4 2 2 5 7 7 7 5 5 5 5 5 4 5 5 4 4 4 3 3 3 5 6 3 5 11 14 7 1 2 4 1 6 1 3 2 2 4 2 3 3 5 3 3 3 2 1 2 2 2 2 5 4 3 5 5 5 5 1 3 8 8 7 7 9 15 21 24 27 29 30 29
40 35 34 43 45 42 41 39 41 41 24 7 12 13 4 4 6 4 6 6 4 5 6 5 4 2 4 6 4 4 6 5 6 4 3 3 3 4 5 3 3 6 11 10 4 1 3 2 4 2 0 1 3 2 3 2 0 3 1 0 1 2 3 2 2 2 3 5 5 4 5 4 5 6 7 10 12 12 11 10 10 16 23 28 31 33 33 32
39 24 18 33 40 38 40 39 37 31 14 5 10 8 2 5 7 9 10 6 2 3 3 3 3 3 4 4 2 3 4 5 6 4 3 4 3 4 3 3 4 2 5 8 5 1 2 2 3 2 2 1 1 2 6 6 4 3 2 2 2 1 1 1 2 2 3 4 4 5 6 5 4 3 7 8 8 12 15 13 12 19 27 31 35 36 36 33
36 16 11 26 31 31 35 31 22 14 7 4 6 4 3 4 5 9 11 8 4 2 2 3 3 4 5 3 2 4 4 4 6 4 3 4 3 3 4 5 7 5 4 4 4 3 2 3 3 2 1 3 4 4 4 5 4 4 5 6 6 4 2 3 5 2 2 3 4 4 6 6 3 0 2 4 4 10 16 14 14 22 30 33 36 36 35 32
31 10 8 22 25 29 32 19 8 8 8 6 5 6 6 4 4 8 9 6 4 1 3 2 1 3 4 3 3 4 5 4 5 4 3 5 5 4 5 7 10 10 7 3 3 3 2 3 2 2 3 4 5 3 1 3 2 3 3 4 4 4 4 6 8 4 1 2 1 1 4 5 1 0 2 4 5 11 18 18 17 23 31 33 34 34 32 31
23 9 8 18 24 33 30 10 5 8 6 5 6 6 7 6 4 5 6 6 3 2 3 2 2 4 3 3 3 4 5 3 4 5 3 4 4 3 8 12 10 9 6 2 2 2 3 2 2 2 2 2 4 4 3 2 3 2 2 1 3 3 3 4 6 2 1 3 1 1 5 5 1 1 2 2 4 10 18 21 21 24 29 31 32 33 33 33
15 8 9 16 26 36 25 6 8 11 4 4 7 6 6 6 7 7 6 6 5 3 3 2 3 4 2 2 4 5 5 4 3 4 3 4 3 2 7 12 9 6 4 2 4 6 4 1 3 1 2 3 3 3 3 3 0 2 3 1 2 2 3 1 1 2 1 4 5 3 8 5 2 3 4 4 2 5 11 18 19 20 23 28 32 34 35 35
12 7 7 14 26 31 17 3 4 8 5 6 8 8 7 4 8 13 11 8 8 6 4 2 3 4 3 2 3 3 5 5 3 3 3 3 1 1 4 8 8 6 5 4 7 9 5 2 4 5 6 8 6 4 4 3 1 1 2 3 4 4 5 2 1 3 4 3 6 7 8 4 3 4 4 4 4 2 5 11 14 14 17 25 31 34 36 36
9 4 4 8 17 22 16 8 3 3 3 7 6 7 10 5 5 12 13 9 10 9 5 2 4 4 2 3 4 4 6 6 3 3 3 3 3 2 1 5 7 7 5 7 10 8 3 1 4 6 8 9 6 6 5 4 3 3 5 7 6 5 6 4 2 3 4 3 5 7 4 0 2 3 4 4 1 1 5 8 13 16 18 23 29 33 34 34
6 3 4 6 6 9 11 11 8 4 2 5 4 4 11 10 3 6 10 8 9 12 5 2 4 6 5 7 7 6 7 6 4 4 3 4 3 1 1 1 2 5 6 8 9 6 3 3 6 7 9 7 2 4 4 5 6 8 8 10 8 5 6 6 5 6 5 4 8 7 4 3 6 5 5 6 4 4 6 9 15 19 20 22 26 28 30 31
4 2 7 9 5 3 7 9 11 10 6 5 3 2 7 11 7 6 8 5 7 13 8 1 6 10 10 11 8 5 6 6 6 6 4 3 3 1 1 1 1 5 6 5 6 5 3 5 6 5 7 6 2 2 4 5 4 4 6 9 7 6 7 8 10 9 6 6 10 6 6 7 8 6 6 9 8 8 10 14 17 19 19 21 22 24 26 29
5 3 6 10 4 2 6 7 8 11 10 7 5 4 7 12 11 7 5 3 4 9 10 8 10 13 11 11 8 7 8 8 7 7 5 4 4 4 2 1 2 5 5 4 3 3 3 3 3 5 5 5 3 3 3 4 4 4 7 10 6 6 8 10 10 6 5 7 10 7 5 8 9 7 7 9 10 10 13 17 17 17 18 20 21 24 26 28
7 4 5 7 3 2 4 6 7 8 9 8 7 7 7 9 10 6 4 6 6 6 9 13 13 11 10 10 9 9 10 8 7 7 7 5 3 4 4 3 3 3 2 3 2 2 3 2 2 4 3 4 2 2 2 2 3 5 10 10 3 4 8 11 7 2 2 7 10 8 8 10 10 7 7 11 13 12 15 19 19 20 21 22 23 25 25 23
12 9 7 5 3 2 3 4 6 6 6 8 8 6 6 9 10 6 2 6 8 5 7 14 13 5 5 7 9 11 13 10 8 9 10 10 8 9 8 6 8 7 4 4 3 2 3 2 2 4 3 3 1 3 3 2 2 7 14 11 6 6 10 8 4 5 9 11 9 6 7 9 8 3 5 11 14 12 14 18 20 20 21 21 22 20 17 14
17 15 13 7 3 4 4 2 4 6 5 7 8 6 6 8 8 7 3 6 9 9 8 12 11 4 4 8 13 18 19 15 13 13 12 11 9 7 7 8 10 9 6 5 2 1 4 4 2 3 4 2 2 3 3 4 3 9 12 9 11 11 12 7 4 9 12 8 6 7 8 8 5 1 3 8 10 9 13 17 18 19 18 17 16 13 10 10
Wind_Direction
215 214 212 211 209 208 207 208 209 211 212 213 215 219 224 227 230 234 238 244 248 254 261 267 275 281 288 296 303 308 312 313 311 311 308 300 280 245 209 188 143 37 12 341 221 201 182 153 123 84 209 121 79 71 63 19 22 29 90 89 330 187 186 182 184 183 155 255 284 326 332 303 298 299 308 301 283 295 305 307 309 310 310 317 320 321 319 322
218 217 215 215 213 213 212 213 215 215 217 218 219 221 226 229 233 238 242 247 251 256 262 267 276 281 289 297 301 306 310 310 309 311 310 295 206 172 163 157 100 344 327 296 210 184 179 163 153 142 149 129 86 87 54 344 38 61 108 94 251 201 209 196 183 187 162 272 272 290 295 266 271 288 307 290 284 307 315 314 321 332 337 342 336 326 318 317
220 218 217 215 215 215 214 215 217 218 220 220 223 226 230 236 238 244 248 254 258 262 268 272 278 283 290 294 299 306 309 312 311 312 314 142 145 150 150 161 328 327 307 261 212 195 191 187 185 167 129 121 117 149 266 317 70 79 103 103 247 215 233 229 210 224 241 277 277 292 292 267 280 293 288 271 301 310 303 305 315 330 336 336 332 325 318 316
222 221 219 217 218 218 218 218 218 221 223 226 230 231 237 242 245 250 254 259 264 268 270 274 279 283 289 292 297 303 311 318 310 235 134 135 141 151 105 339 333 330 304 246 216 206 203 200 198 181 139 105 217 237 233 223 206 174 145 181 229 183 245 259 245 255 254 273 283 299 306 293 305 308 283 306 331 310 300 310 320 326 329 328 326 325 325 325
225 225 223 221 221 222 221 222 224 225 227 231 234 237 241 244 249 254 259 263 267 271 273 276 279 283 288 290 295 299 315 335 208 157 156 162 173 242 317 325 321 324 304 229 212 208 208 200 188 178 172 247 179 230 250 207 180 182 218 236 241 178 243 280 283 288 284 302 299 306 312 298 307 303 291 301 284 279 297 314 324 325 324 325 328 333 336 339
227 227 226 224 224 225 225 226 228 230 231 234 236 242 245 249 255 258 263 268 271 273 275 277 280 283 287 288 291 295 302 312 189 189 210 215 234 277 298 304 307 313 292 218 210 210 210 198 188 187 181 306 192 200 235 196 190 215 266 266 267 245 252 280 291 294 293 302 298 299 298 291 297 301 299 288 272 285 298 308 321 329 333 340 353 3 1 3
227 228 227 227 226 226 228 229 231 234 237 240 244 250 254 259 263 266 269 272 274 276 278 280 283 284 286 286 289 287 265 255 253 245 246 244 256 275 284 285 293 301 270 217 217 214 213 203 198 196 157 51 221 217 249 221 200 197 273 287 287 271 264 282 295 295 293 294 293 297 289 281 282 291 303 291 287 300 312 323 341 356 10 8 16 27 26 23
227 227 227 227 228 228 231 233 237 241 246 251 256 260 263 266 267 270 272 274 276 278 279 281 283 282 283 283 283 277 262 267 273 257 251 248 255 267 269 267 280 291 249 217 220 216 221 216 210 206 173 180 216 213 256 289 221 184 241 285 301 292 289 297 299 293 292 294 297 297 273 274 280 276 282 283 293 323 340 7 35 28 16 10 13 23 26 5
228 228 228 228 229 230 234 239 243 249 254 258 263 265 266 268 269 271 272 273 275 275 278 280 281 281 279 275 271 270 269 273 272 255 251 248 252 257 253 254 263 267 242 223 217 215 221 220 218 218 222 223 212 222 126 82 268 207 223 277 299 298 299 300 293 288 290 291 293 285 274 286 297 272 266 273 295 349 34 87 61 359 356 360 4 14 3 308
231 230 230 231 231 234 238 243 248 252 257 260 262 265 266 267 268 271 272 273 274 275 278 277 279 278 275 269 249 245 273 271 266 263 256 249 247 243 241 244 245 245 255 242 228 220 217 217 219 216 228 219 186 215 162 155 267 247 262 282 284 289 294 291 284 286 290 288 280 255 268 296 330 175 260 290 46 92 123 111 12 343 351 352 349 347 322 284
233 233 233 234 235 239 243 247 252 254 256 258 260 262 263 266 268 269 271 272 272 273 274 274 276 271 270 262 227 227 269 270 268 267 256 250 242 235 234 233 235 246 264 255 238 227 218 217 209 198 213 192 171 221 221 209 273 315 321 302 291 301 298 285 279 287 293 290 267 228 253 300 126 187 240 195 78 92 104 94 24 357 355 338 320 317 311 289
233 234 235 238 241 245 249 251 252 253 254 255 257 259 260 263 265 267 270 271 273 273 273 272 271 267 268 257 241 249 271 270 266 265 259 254 242 233 231 231 243 261 266 252 239 228 220 218 213 207 212 179 167 215 219 261 322 303 337 315 300 334 318 288 278 274 269 241 245 206 286 304 170 222 227 188 59 55 61 78 74 54 50 228 265 290 298 303
234 235 238 242 246 249 250 251 251 250 252 253 254 256 259 262 264 267 269 271 274 274 275 272 270 272 268 258 258 264 268 263 261 260 258 251 239 233 235 243 257 263 250 239 237 228 220 217 215 215 215 187 176 186 248 309 330 287 347 7 307 351 324 287 94 107 347 281 210 150 268 281 259 237 230 268 332 11 64 87 94 106 137 155 178 248 283 302
234 236 241 244 247 248 247 247 247 248 249 250 253 255 258 261 264 267 269 272 273 273 274 272 273 274 264 261 271 271 261 257 254 253 255 251 243 241 246 252 255 248 234 232 232 223 215 214 214 214 214 207 184 177 294 339 3 286 345 22 349 349 280 294 4 256 337 316 193 148 223 264 271 265 271 353 321 340 66 109 116 131 139 142 152 166 274 306
234 237 240 243 243 242 242 242 243 244 246 248 250 254 257 260 263 265 267 268 269 272 273 272 274 274 268 268 272 268 259 253 250 250 252 252 251 252 252 248 240 233 230 228 223 213 207 204 207 202 187 184 159 134 358 349 3 30 305 308 333 188 264 310 320 209 210 261 165 144 208 269 277 283 349 50 358 332 88 122 124 132 129 130 122 92 61 28
234 236 237 238 237 236 237 238 239 242 243 244 247 251 253 256 258 260 262 264 267 269 272 275 274 270 272 277 271 262 256 250 248 248 246 248 251 251 248 240 230 227 225 220 216 206 199 197 196 188 178 164 130 101 44 354 336 359 192 243 272 204 269 318 327 218 196 140 151 158 235 280 280 279 8 40 346 318 129 126 122 122 114 108 95 78 69 65
234 235 236 235 234 233 233 235 237 239 239 239 242 246 249 251 254 256 258 260 263 266 270 272 273 273 265 264 262 254 250 243 241 242 241 243 242 238 235 228 220 218 215 208 206 198 195 191 176 186 174 110 110 102 68 307 285 310 1 218 241 212 238 292 314 336 54 96 195 315 242 254 275 280 321 12 350 145 130 124 118 112 101 97 90 81 77 71
233 232 233 233 232 231 231 234 236 237 237 236 239 243 246 248 251 255 256 257 259 265 271 256 244 286 267 251 247 247 244 234 234 237 236 230 224 221 217 219 217 206 188 178 191 186 186 178 148 167 26 66 125 123 159 232 217 207 197 206 254 248 237 250 270 312 29 31 290 286 253 261 276 282 335 19 14 126 121 120 113 108 103 100 95 90 82 72
231 230 230 230 228 228 230 234 236 237 237 234 235 238 243 251 256 257 254 250 243 237 257 233 203 194 254 242 231 232 231 227 230 231 228 218 209 208 205 204 197 183 162 152 191 179 165 126 105 197 222 184 187 174 198 213 181 181 192 174 197 241 253 243 248 261 353 351 284 252 245 260 271 276 7 29 77 114 116 117 108 107 106 105 101 93 86 80
229 228 228 228 226 226 229 232 236 237 235 232 230 231 241 249 262 267 252 244 241 238 246 243 226 230 243 251 238 233 237 237 234 227 221 214 202 194 186 178 169 169 160 159 186 173 153 142 183 221 215 199 203 202 206 197 145 143 140 155 205 232 264 266 260 265 161 190 270 251 239 268 267 279 7 35 97 103 110 113 105 108 106 105 103 96 91 85
224 226 226 226 225 226 229 232 235 234 232 228 223 225 232 224 222 276 263 255 254 249 249 252 250 249 249 251 255 257 255 246 236 224 217 208 192 180 179 171 150 163 213 148 125 114 134 166 223 230 218 200 202 204 209 202 124 108 138 225 263 240 257 264 258 282 185 179 263 240 191 271 267 295 9 43 86 82 106 115 109 112 108 106 104 99 98 95
219 222 222 222 222 224 227 230 232 230 227 225 222 222 228 230 237 261 278 280 267 255 249 250 249 250 250 249 253 257 252 244 232 217 210 196 186 185 181 167 148 181 192 120 103 86 130 212 238 236 195 148 153 150 171 204 155 102 125 193 265 248 278 284 277 313 93 174 259 213 185 262 274 24 28 49 80 80 106 120 119 118 113 109 108 105 107 108
219 219 219 220 218 220 224 227 229 226 223 222 223 224 232 243 247 258 269 281 278 265 252 248 246 247 249 248 249 249 239 235 233 215 205 192 187 190 180 165 163 165 164 175 159 149 190 238 244 225 144 153 217 140 128 122 116 129 144 166 246 250 315 279 287 332 358 165 262 229 229 272 281 77 47 57 87 93 102 113 115 118 115 113 115 114 115 112
217 217 217 216 214 216 219 223 226 224 222 221 224 225 233 243 242 257 267 270 285 270 251 247 244 245 248 247 244 240 233 232 233 213 203 193 185 184 189 180 162 157 197 201 183 182 224 245 232 134 141 167 219 219 148 137 230 235 203 196 225 237 218 227 281 335 335 355 2 311 308 291 255 215 104 79 91 91 98 107 106 111 116 119 122 120 118 114
214 214 214 211 210 214 217 224 225 222 222 220 223 224 223 228 229 249 273 292 287 268 247 239 237 240 240 240 236 226 225 230 229 214 200 194 187 176 187 187 169 203 211 183 179 219 248 249 153 106 115 153 197 236 189 159 192 273 234 206 211 224 227 234 324 6 359 344 347 18 324 292 292 262 167 140 96 84 94 102 103 113 121 126 126 122 121 117
213 212 209 208 208 208 217 227 223 220 220 220 221 216 208 202 198 232 1 24 285 244 196 205 212 222 221 220 208 187 196 234 219 207 193 192 194 179 163 178 171 216 187 149 170 233 253 247 186 156 145 156 194 242 221 167 146 279 244 198 200 208 218 229 177 90 103 259 294 52 190 271 304 294 177 162 123 101 101 99 113 126 128 132 130 128 128 122
212 209 206 209 208 204 211 221 218 214 213 217 213 202 198 186 164 123 52 352 274 199 152 172 177 185 198 184 167 159 166 194 176 191 187 185 192 185 180 184 158 205 161 130 189 243 219 228 176 161 142 152 195 237 224 161 131 239 237 155 160 176 192 200 163 166 223 254 319 5 123 264 288 261 199 155 125 117 147 126 133 140 138 141 139 137 134 128
212 206 202 208 211 209 210 211 212 209 207 208 201 194 189 176 168 118 79 287 262 138 134 166 161 170 178 169 168 160 131 143 136 182 183 181 188 184 203 207 172 184 157 139 206 263 186 196 205 172 147 178 207 225 190 154 148 244 205 122 133 151 157 139 127 160 300 39 306 294 135 257 272 259 177 146 150 222 204 183 175 160 154 153 149 146 140 134
209 203 201 207 212 214 212 210 210 206 203 197 191 191 175 160 156 88 89 241 203 117 139 157 154 165 158 159 178 172 117 134 121 165 171 178 187 175 194 206 167 146 109 133 208 258 66 232 220 158 154 207 214 261 179 169 195 200 131 94 73 78 89 87 104 116 39 14 240 232 176 216 272 241 160 197 254 237 198 182 193 174 165 162 157 154 147 139
206 201 201 204 207 209 210 212 209 200 196 192 187 183 165 152 131 97 221 232 156 126 140 152 166 165 147 141 178 209 142 127 116 140 150 169 181 160 122 159 132 116 40 10 252 259 308 317 256 156 178 191 142 67 149 173 157 133 110 69 47 31 42 50 53 87 53 288 220 203 188 184 264 267 190 196 227 199 163 167 193 179 173 171 165 160 152 145
205 200 198 203 207 210 210 210 205 194 190 190 183 171 161 151 110 189 219 212 76 138 127 147 181 150 149 143 164 194 134 81 142 143 142 143 161 147 116 132 97 79 3 329 295 304 327 326 280 228 184 136 100 66 34 37 96 112 90 78 75 340 5 26 356 51 135 257 234 213 196 179 233 262 228 224 246 194 178 178 181 179 179 177 171 166 158 151
204 197 196 203 211 215 214 211 204 192 190 189 180 168 154 161 228 213 212 92 139 203 157 169 184 156 163 137 152 181 136 146 176 153 149 136 155 178 169 172 157 89 331 252 256 334 301 244 267 300 194 156 114 73 30 12 40 87 95 102 100 327 352 348 306 95 224 250 253 241 158 202 242 244 213 233 270 267 247 215 184 177 178 178 175 169 163 159
205 197 196 202 211 218 217 213 203 194 196 192 182 169 144 221 224 197 188 186 196 188 143 138 123 134 150 140 186 186 131 189 191 166 147 118 151 217 251 210 161 129 126 198 199 344 287 290 292 113 244 195 160 138 170 236 135 147 148 136 132 128 165 263 266 266 269 269 273 212 178 250 274 270 193 230 273 282 275 243 196 179 177 177 175 171 167 166
207 203 203 205 212 219 218 214 203 198 204 196 183 169 178 227 222 165 182 206 200 121 111 116 111 114 145 171 215 179 142 229 182 149 127 123 144 223 247 229 176 123 100 140 173 176 210 302 212 178 212 188 180 175 162 144 149 186 164 137 149 155 173 216 218 214 256 284 291 230 180 202 230 253 223 230 288 317 260 200 184 178 177 176 175 174 174 172
212 212 212 212 216 219 218 214 204 205 210 198 181 179 204 216 222 155 183 190 155 126 72 83 112 126 185 232 245 193 184 227 171 134 146 164 175 196 197 202 187 152 129 161 221 166 170 264 249 241 92 166 182 180 131 112 127 218 114 108 172 182 167 189 203 178 175 296 285 203 213 225 194 163 3 56 60 60 110 149 161 170 176 177 180 182 180 177
215 217 217 220 220 218 218 214 208 214 212 194 176 218 213 217 209 176 177 156 155 147 112 78 100 133 208 235 242 221 205 164 153 150 197 200 207 206 202 211 187 176 166 163 197 162 139 272 281 352 2 186 178 175 136 129 179 166 125 189 223 182 134 120 268 127 103 257 262 194 243 283 304 30 14 40 60 66 110 145 158 169 175 181 186 186 183 180
216 218 221 224 223 221 220 215 214 218 209 190 189 223 216 252 204 189 181 146 141 139 134 160 187 167 194 205 211 206 176 137 159 167 210 222 226 200 203 237 186 185 193 177 200 198 144 267 275 149 191 267 147 135 76 71 133 127 177 215 201 120 96 99 249 335 47 244 266 238 234 259 262 254 346 21 137 184 180 173 169 175 181 187 191 189 185 183
217 220 222 224 224 222 219 218 219 214 202 188 216 221 211 220 215 221 186 146 122 137 155 191 195 173 182 190 205 185 162 174 177 174 192 218 248 187 171 212 186 191 201 176 152 232 131 251 281 180 166 267 47 104 63 14 108 131 187 198 120 145 203 114 175 225 234 238 265 273 247 242 225 219 202 214 214 204 195 191 187 188 191 194 195 192 190 188
217 215 222 226 223 221 222 223 216 205 195 194 218 217 200 193 229 243 183 151 104 151 176 198 181 138 172 175 176 171 170 179 172 174 180 179 231 196 163 186 185 202 203 173 161 225 126 174 276 323 189 216 42 95 177 238 1 97 114 31 76 175 186 165 172 191 215 230 249 257 247 252 243 203 177 201 206 188 184 193 199 197 195 196 195 194 194 193
213 207 223 227 221 223 225 218 204 195 194 213 209 209 171 177 225 239 203 170 116 162 188 202 165 142 167 171 175 173 169 172 168 177 197 179 201 220 201 178 148 165 190 172 176 183 120 178 237 314 342 147 167 208 189 189 185 150 160 205 232 206 164 247 231 144 160 201 225 242 245 255 264 198 178 208 208 183 185 190 193 197 198 199 198 196 196 194
208 207 229 219 217 219 212 202 193 192 202 220 207 198 171 157 196 228 220 198 167 145 144 165 171 166 165 166 195 182 155 159 171 177 206 196 192 217 215 179 155 146 130 146 190 204 167 180 182 175 154 183 223 237 207 203 194 176 193 203 202 189 175 243 247 203 163 192 192 225 256 259 259 211 189 223 206 186 191 189 186 196 200 202 202 200 198 196
202 207 219 206 211 207 194 187 194 200 205 214 197 179 171 145 163 204 212 197 178 127 117 135 161 173 175 175 181 170 153 157 179 184 203 207 202 200 192 176 162 153 133 133 202 202 129 133 169 209 200 210 249 275 247 228 168 141 209 205 182 175 173 216 236 222 174 239 145 106 270 263 251 295 246 242 228 201 194 187 186 198 203 205 206 203 201 200
195 194 183 186 198 196 188 189 212 198 211 195 162 162 167 159 160 179 189 190 180 131 144 172 185 189 201 183 158 166 166 164 180 184 194 208 214 207 176 169 160 146 134 147 194 155 105 117 180 268 298 316 314 327 342 16 87 125 256 180 149 184 184 214 229 186 161 240 180 76 259 255 294 332 304 280 234 199 192 191 192 199 205 207 207 203 204 207
174 160 151 168 187 190 187 199 204 200 215 165 162 176 174 171 178 176 180 191 181 148 156 183 189 197 214 158 153 176 183 184 187 190 199 194 203 205 168 168 168 159 163 200 176 168 179 160 140 183 300 315 321 324 316 323 31 196 245 250 191 172 107 93 210 138 213 220 167 207 252 250 299 328 354 23 73 162 191 198 200 203 207 209 207 205 209 214
152 138 139 166 184 192 202 264 197 195 203 180 183 186 172 181 201 192 187 183 180 169 158 184 185 172 173 152 136 162 191 201 199 192 204 197 215 256 177 180 188 186 191 188 161 159 174 178 149 176 224 237 236 225 222 239 237 203 243 244 227 191 163 173 189 185 228 210 172 220 254 267 321 326 339 7 50 96 201 205 208 214 213 213 211 211 217 222
159 150 142 167 187 202 225 258 224 162 188 188 186 182 181 191 208 196 191 186 189 180 152 144 163 151 158 165 154 183 210 215 204 171 176 192 225 291 200 198 210 210 195 165 155 147 125 199 194 195 220 230 224 218 198 152 157 214 233 228 220 201 184 175 146 191 217 213 216 234 237 252 282 277 281 296 347 206 234 217 214 217 216 219 220 220 225 229
165 180 167 160 187 210 227 237 219 197 193 192 183 175 186 188 179 192 196 195 190 181 162 79 156 175 192 178 175 200 206 205 202 179 167 184 205 320 62 158 198 200 182 161 162 143 99 225 216 207 233 242 204 204 195 162 188 210 217 226 223 191 170 179 206 218 189 199 245 237 160 185 243 228 225 246 234 221 234 225 223 223 222 225 228 230 235 237
160 186 179 168 165 200 212 217 209 203 209 208 207 182 184 193 196 188 193 195 180 180 182 187 190 198 195 176 176 193 185 195 213 193 171 173 168 103 52 9 150 177 167 157 168 141 129 227 215 192 235 247 166 196 199 181 214 219 213 229 222 181 176 200 225 225 186 208 253 244 166 205 241 222 206 221 217 215 229 234 236 236 234 236 238 241 244 243
158 139 182 185 181 225 211 198 186 199 209 207 212 215 201 204 205 190 162 142 174 194 196 203 208 206 196 178 175 184 185 194 209 200 181 175 168 144 143 275 235 191 166 148 167 154 157 217 188 165 225 243 202 217 198 185 235 253 241 241 221 182 198 216 230 224 184 226 260 266 241 242 247 228 216 229 231 232 245 248 246 245 248 250 251 251 251 249
176 155 171 190 209 279 216 182 166 195 210 203 215 226 214 210 206 196 165 159 179 200 198 209 215 199 185 187 188 204 209 190 184 194 180 167 177 185 196 199 164 173 180 158 174 190 182 197 127 138 207 256 216 175 138 180 235 249 254 252 205 177 223 232 237 219 202 244 253 259 268 267 262 241 226 248 252 241 245 250 250 253 254 253 253 254 253 250
207 197 180 175 201 222 212 185 172 192 208 201 210 210 200 217 211 194 210 208 202 193 184 209 221 183 153 193 203 221 226 201 192 206 193 185 197 203 207 189 159 164 186 177 180 190 183 192 80 123 203 244 174 148 146 78 352 266 261 250 193 202 237 232 204 204 222 237 244 247 256 260 263 231 196 243 248 233 235 245 250 256 257 253 250 248 245 240
215 213 200 187 198 196 192 197 184 197 210 204 209 199 191 217 205 176 216 244 218 213 206 208 213 179 163 202 213 226 230 222 224 231 217 211 217 212 203 181 167 171 173 163 162 159 159 156 126 155 204 208 117 137 124 56 339 265 258 230 194 216 242 241 228 229 223 216 217 228 237 248 261 214 204 243 241 226 238 247 250 256 256 249 241 234 228 226
Height
1548 1548 1549 1549 1549 1549 1550 1550 1550 1550 1551 1551 1551 1551 1551 1551 1552 1552 1552 1552 1552 1552 1552 1551 1551 1551 1550 1550 1550 1549 1548 1548 1547 1546 1545 1544 1544 1545 1545 1545 1545 1545 1546 1545 1545 1546 1546 1546 1546 1546 1546 1546 1546 1546 1546 1546 1546 1546 1550 1552 1553 1556 1554 1550 1551 1550 1549 1548 1546 1545 1545 1545 1544 1543 1542 1542 1541 1539 1537 1536 1538 1538 1538 1538 1537 1537 1536 1536
1548 1548 1549 1549 1549 1549 1550 1550 1550 1550 1551 1551 1551 1551 1551 1551 1551 1552 1551 1551 1551 1551 1551 1551 1551 1550 1550 1549 1549 1548 1548 1547 1546 1545 1543 1543 1543 1544 1545 1545 1545 1545 1545 1545 1545 1545 1546 1546 1546 1546 1546 1546 1547 1547 1547 1547 1547 1548 1552 1553 1552 1554 1550 1546 1548 1547 1547 1547 1545 1545 1545 1545 1544 1543 1542 1541 1540 1538 1536 1534 1535 1536 1536 1536 1536 1535 1535 1534
1548 1548 1549 1549 1549 1549 1549 1550 1550 1550 1550 1550 1551 1551 1551 1551 1551 1551 1551 1551 1550 1550 1550 1550 1550 1549 1549 1549 1548 1548 1547 1546 1545 1544 1543 1542 1543 1544 1545 1545 1545 1545 1545 1545 1545 1545 1545 1546 1546 1546 1546 1547 1547 1547 1547 1547 1547 1548 1551 1552 1550 1550 1548 1546 1546 1546 1546 1546 1545 1545 1544 1544 1543 1543 1542 1541 1540 1538 1537 1534 1533 1534 1534 1534 1534 1533 1532 1531
1547 1548 1548 1548 1549 1549 1549 1549 1549 1549 1550 1550 1550 1550 1550 1550 1550 1550 1550 1550 1550 1549 1549 1549 1549 1549 1548 1548 1548 1547 1546 1545 1543 1543 1543 1543 1544 1544 1544 1545 1545 1545 1545 1545 1545 1545 1545 1546 1546 1546 1546 1547 1547 1547 1547 1547 1548 1549 1549 1549 1548 1548 1547 1545 1544 1545 1546 1546 1545 1544 1544 1543 1542 1542 1541 1540 1540 1538 1536 1535 1534 1534 1533 1533 1532 1531 1530 1530
1546 1547 1547 1548 1548 1548 1548 1548 1549 1549 1549 1549 1549 1549 1549 1549 1549 1549 1549 1549 1549 1548 1548 1548 1548 1548 1547 1547 1547 1546 1547 1546 1544 1543 1544 1544 1544 1544 1544 1544 1544 1544 1544 1544 1544 1545 1545 1545 1546 1546 1546 1546 1547 1547 1547 1547 1547 1548 1547 1546 1546 1547 1546 1544 1544 1545 1545 1545 1544 1544 1543 1542 1541 1541 1540 1540 1541 1538 1535 1535 1535 1534 1533 1531 1530 1529 1528 1528
1545 1545 1546 1547 1547 1547 1547 1548 1548 1548 1548 1548 1548 1548 1549 1548 1548 1548 1548 1548 1548 1547 1547 1547 1547 1547 1547 1546 1546 1546 1547 1547 1544 1544 1544 1544 1544 1543 1544 1544 1544 1544 1544 1544 1544 1545 1545 1545 1546 1546 1546 1546 1547 1547 1547 1547 1548 1548 1547 1545 1545 1546 1545 1543 1544 1544 1544 1544 1543 1543 1542 1540 1540 1539 1539 1538 1537 1535 1535 1536 1535 1534 1532 1530 1529 1529 1528 1528
1544 1544 1545 1545 1546 1546 1546 1547 1547 1547 1547 1547 1547 1547 1547 1547 1547 1547 1547 1547 1546 1546 1546 1546 1546 1546 1546 1545 1545 1545 1545 1545 1543 1544 1544 1543 1543 1543 1543 1543 1543 1543 1543 1543 1544 1544 1545 1545 1546 1546 1547 1547 1547 1547 1547 1547 1548 1549 1547 1546 1545 1546 1545 1543 1543 1543 1543 1543 1542 1543 1541 1539 1539 1539 1538 1535 1533 1534 1535 1535 1535 1533 1532 1530 1530 1529 1528 1528
1542 1543 1543 1544 1544 1545 1545 1545 1545 1546 1546 1546 1546 1546 1546 1546 1545 1545 1545 1545 1545 1545 1545 1545 1545 1545 1545 1545 1544 1545 1544 1542 1542 1543 1542 1542 1542 1542 1543 1543 1543 1543 1542 1543 1543 1544 1545 1545 1546 1546 1547 1547 1547 1547 1548 1548 1548 1549 1548 1546 1545 1545 1544 1543 1543 1541 1541 1541 1541 1541 1539 1537 1538 1538 1536 1532 1531 1533 1534 1534 1534 1533 1532 1531 1530 1529 1528 1528
1541 1541 1542 1542 1543 1543 1543 1544 1544 1544 1544 1544 1544 1544 1544 1544 1544 1544 1544 1544 1544 1544 1544 1544 1544 1543 1544 1543 1544 1544 1542 1541 1541 1541 1541 1541 1541 1541 1542 1542 1542 1542 1542 1542 1543 1543 1544 1545 1545 1545 1546 1547 1547 1547 1547 1548 1548 1547 1547 1546 1545 1544 1543 1542 1541 1540 1540 1540 1540 1539 1536 1535 1536 1537 1534 1530 1531 1533 1533 1533 1533 1533 1532 1530 1529 1529 1528 1528
1539 1539 1540 1540 1541 1541 1542 1542 1542 1542 1543 1543 1543 1543 1543 1543 1543 1543 1543 1543 1543 1543 1543 1542 1542 1542 1542 1542 1543 1542 1540 1540 1540 1540 1540 1540 1540 1540 1541 1541 1541 1541 1541 1542 1542 1543 1543 1544 1544 1545 1546 1546 1546 1547 1547 1548 1548 1547 1547 1546 1545 1544 1542 1541 1539 1538 1539 1538 1537 1537 1535 1535 1536 1536 1533 1529 1531 1533 1532 1533 1532 1532 1531 1530 1529 1529 1528 1528
1537 1538 1538 1539 1539 1540 1540 1540 1541 1541 1541 1541 1541 1541 1541 1542 1542 1542 1542 1542 1542 1542 1542 1542 1542 1541 1541 1541 1541 1540 1539 1539 1539 1539 1539 1539 1539 1539 1540 1540 1540 1541 1541 1541 1541 1542 1543 1543 1544 1544 1545 1545 1546 1547 1547 1547 1547 1547 1546 1545 1544 1542 1541 1539 1537 1536 1537 1536 1535 1535 1535 1535 1536 1535 1531 1530 1531 1532 1532 1532 1531 1531 1531 1530 1530 1529 1528 1528
1535 1536 1537 1537 1538 1538 1538 1539 1539 1539 1539 1539 1540 1540 1540 1540 1540 1540 1541 1540 1540 1540 1540 1541 1540 1540 1540 1540 1538 1538 1538 1538 1538 1538 1538 1538 1538 1538 1539 1539 1539 1540 1540 1540 1541 1541 1542 1543 1543 1544 1544 1545 1546 1546 1546 1546 1547 1546 1546 1545 1543 1542 1539 1536 1536 1536 1536 1536 1534 1535 1535 1533 1534 1532 1528 1530 1531 1531 1531 1530 1531 1531 1530 1530 1530 1529 1528 1527
1534 1535 1535 1536 1536 1537 1537 1537 1538 1538 1538 1538 1538 1538 1539 1539 1539 1539 1539 1539 1539 1539 1539 1539 1539 1539 1539 1537 1535 1536 1537 1536 1536 1536 1536 1537 1537 1537 1538 1538 1538 1539 1539 1540 1540 1540 1541 1542 1542 1543 1543 1544 1545 1545 1545 1545 1546 1545 1546 1546 1545 1545 1540 1534 1535 1536 1535 1536 1534 1536 1539 1533 1530 1529 1527 1530 1531 1530 1530 1530 1530 1530 1530 1530 1529 1529 1528 1527
1532 1533 1533 1534 1535 1535 1535 1536 1536 1536 1537 1537 1537 1537 1538 1538 1538 1538 1538 1538 1538 1538 1538 1538 1537 1537 1537 1535 1534 1534 1535 1535 1535 1535 1535 1535 1536 1536 1537 1537 1537 1538 1538 1539 1539 1540 1541 1541 1542 1542 1543 1543 1544 1544 1545 1546 1546 1546 1547 1548 1550 1550 1541 1534 1535 1536 1535 1535 1534 1536 1541 1534 1526 1526 1528 1530 1529 1529 1529 1530 1530 1530 1529 1529 1529 1529 1528 1527
1530 1531 1531 1532 1533 1533 1534 1534 1534 1535 1535 1536 1536 1536 1536 1537 1537 1537 1537 1537 1537 1537 1536 1536 1536 1536 1535 1532 1532 1532 1532 1533 1533 1533 1534 1534 1534 1535 1535 1536 1536 1537 1537 1538 1538 1539 1540 1541 1541 1542 1542 1542 1543 1545 1546 1547 1547 1548 1548 1549 1553 1552 1543 1535 1534 1535 1534 1534 1534 1536 1540 1535 1527 1526 1528 1529 1529 1528 1529 1530 1530 1530 1530 1529 1529 1529 1528 1527
1528 1529 1529 1530 1531 1531 1532 1533 1533 1533 1534 1534 1535 1535 1535 1536 1535 1536 1536 1535 1536 1535 1535 1535 1535 1535 1534 1531 1530 1530 1530 1531 1531 1531 1532 1532 1533 1534 1534 1535 1535 1535 1536 1537 1538 1538 1539 1540 1540 1541 1541 1542 1543 1545 1547 1549 1549 1550 1550 1548 1550 1551 1548 1541 1534 1533 1534 1533 1535 1536 1537 1535 1529 1525 1527 1529 1529 1528 1529 1530 1530 1530 1530 1530 1529 1529 1528 1528
1526 1527 1528 1528 1529 1530 1531 1531 1531 1532 1532 1533 1533 1534 1534 1534 1534 1534 1534 1534 1534 1534 1534 1534 1533 1534 1532 1528 1528 1528 1529 1529 1529 1530 1531 1531 1532 1532 1533 1534 1534 1535 1535 1536 1537 1538 1539 1539 1540 1540 1541 1542 1543 1544 1550 1553 1549 1549 1551 1550 1549 1549 1549 1544 1535 1533 1534 1534 1535 1536 1536 1534 1528 1525 1527 1529 1528 1528 1529 1530 1531 1531 1530 1530 1530 1529 1529 1528
1524 1525 1526 1527 1528 1529 1529 1529 1530 1530 1531 1532 1532 1532 1532 1533 1533 1533 1532 1533 1533 1533 1533 1532 1533 1535 1530 1525 1526 1526 1527 1528 1528 1529 1529 1530 1531 1531 1532 1533 1533 1534 1535 1536 1536 1537 1538 1538 1539 1540 1541 1544 1543 1544 1549 1547 1541 1542 1546 1547 1548 1548 1548 1545 1539 1535 1534 1535 1535 1537 1537 1534 1528 1526 1528 1529 1528 1528 1529 1531 1531 1531 1531 1530 1530 1530 1529 1529
1522 1523 1524 1525 1526 1527 1528 1528 1528 1529 1530 1530 1531 1531 1531 1531 1531 1531 1530 1531 1531 1531 1531 1529 1529 1531 1527 1523 1524 1525 1526 1527 1527 1528 1528 1529 1530 1531 1532 1532 1533 1534 1534 1536 1536 1536 1537 1538 1540 1540 1540 1541 1540 1539 1538 1536 1535 1537 1539 1543 1545 1545 1544 1542 1539 1535 1535 1536 1536 1536 1536 1533 1528 1526 1529 1530 1529 1529 1530 1531 1532 1531 1531 1531 1531 1530 1530 1529
1520 1521 1522 1524 1525 1526 1526 1527 1527 1528 1528 1529 1529 1530 1530 1530 1530 1529 1528 1528 1527 1527 1526 1525 1525 1525 1524 1523 1524 1524 1525 1526 1526 1526 1527 1528 1529 1530 1531 1532 1533 1533 1534 1534 1535 1536 1537 1539 1539 1536 1534 1534 1534 1534 1532 1533 1536 1538 1539 1542 1543 1544 1542 1538 1536 1534 1535 1537 1535 1533 1534 1533 1528 1527 1530 1531 1529 1530 1531 1532 1532 1532 1532 1531 1531 1531 1530 1530
1518 1519 1520 1522 1524 1524 1525 1525 1526 1526 1527 1528 1528 1529 1528 1528 1529 1528 1526 1525 1524 1524 1524 1524 1524 1523 1522 1523 1523 1523 1524 1524 1524 1525 1526 1526 1528 1529 1530 1531 1532 1533 1534 1534 1535 1536 1537 1539 1536 1529 1528 1531 1532 1533 1534 1535 1537 1539 1540 1542 1543 1544 1542 1536 1535 1533 1534 1536 1534 1533 1534 1531 1526 1527 1531 1531 1530 1531 1532 1532 1533 1533 1533 1532 1532 1532 1531 1531
1516 1517 1518 1521 1522 1523 1524 1524 1525 1525 1526 1527 1527 1527 1527 1527 1527 1527 1526 1525 1522 1522 1522 1521 1521 1520 1519 1521 1521 1521 1522 1522 1522 1523 1524 1525 1526 1527 1528 1530 1531 1532 1534 1534 1535 1538 1540 1538 1530 1526 1529 1531 1532 1534 1535 1537 1538 1540 1542 1543 1543 1542 1540 1535 1533 1533 1534 1534 1533 1533 1533 1528 1526 1530 1532 1530 1530 1532 1532 1532 1533 1533 1533 1533 1533 1532 1533 1533
1513 1515 1517 1518 1520 1522 1522 1522 1523 1524 1525 1525 1526 1526 1526 1527 1527 1527 1527 1525 1520 1518 1519 1518 1518 1516 1516 1518 1518 1519 1519 1519 1520 1520 1522 1524 1524 1526 1527 1528 1530 1531 1533 1533 1533 1538 1539 1533 1525 1526 1530 1531 1533 1534 1536 1538 1539 1540 1541 1542 1541 1540 1541 1536 1532 1532 1533 1533 1533 1533 1533 1528 1526 1530 1533 1533 1532 1532 1533 1532 1533 1533 1533 1533 1534 1533 1534 1534
1511 1513 1515 1516 1519 1519 1520 1521 1521 1522 1524 1524 1525 1526 1526 1527 1527 1527 1527 1526 1521 1516 1515 1514 1514 1513 1513 1514 1515 1516 1517 1516 1517 1518 1519 1521 1523 1525 1525 1526 1529 1531 1531 1531 1531 1533 1531 1525 1524 1527 1529 1531 1532 1533 1536 1538 1539 1539 1538 1539 1538 1536 1537 1536 1534 1533 1532 1533 1533 1532 1532 1527 1522 1524 1530 1534 1534 1533 1533 1533 1533 1534 1534 1534 1534 1534 1535 1534
1509 1511 1513 1515 1517 1517 1519 1520 1519 1521 1522 1523 1524 1525 1526 1526 1526 1527 1527 1527 1522 1514 1512 1511 1511 1510 1510 1511 1512 1513 1515 1514 1515 1516 1517 1519 1520 1522 1524 1524 1527 1528 1529 1531 1533 1533 1527 1523 1525 1527 1529 1531 1531 1531 1533 1535 1538 1537 1532 1532 1532 1532 1533 1534 1536 1536 1535 1534 1534 1534 1532 1524 1518 1521 1528 1534 1535 1534 1535 1534 1534 1534 1534 1535 1535 1535 1535 1535
1506 1508 1510 1513 1514 1515 1518 1517 1518 1520 1520 1522 1524 1524 1526 1525 1526 1527 1526 1530 1524 1511 1508 1509 1508 1508 1507 1509 1510 1512 1515 1513 1512 1513 1515 1517 1518 1520 1522 1524 1524 1526 1528 1531 1533 1531 1526 1523 1524 1526 1528 1530 1531 1531 1531 1532 1536 1535 1529 1526 1529 1530 1532 1535 1536 1537 1537 1535 1535 1536 1534 1527 1519 1518 1527 1533 1534 1535 1535 1534 1534 1534 1534 1535 1535 1535 1536 1535
1503 1506 1508 1510 1512 1513 1515 1515 1517 1518 1519 1522 1522 1523 1525 1524 1527 1526 1527 1535 1524 1504 1503 1506 1505 1505 1505 1507 1508 1510 1513 1510 1509 1512 1513 1515 1517 1518 1520 1522 1523 1524 1525 1529 1532 1528 1523 1522 1525 1526 1528 1530 1531 1529 1529 1530 1533 1532 1527 1526 1527 1528 1531 1533 1534 1535 1536 1536 1536 1534 1533 1532 1523 1519 1528 1532 1531 1534 1535 1534 1534 1534 1534 1534 1535 1535 1535 1535
1501 1503 1505 1508 1509 1510 1512 1513 1515 1516 1518 1520 1520 1523 1523 1524 1527 1524 1530 1538 1517 1495 1499 1503 1503 1504 1504 1507 1508 1508 1509 1508 1509 1512 1512 1514 1516 1517 1519 1520 1521 1523 1523 1527 1529 1525 1521 1522 1524 1525 1528 1530 1528 1525 1526 1528 1528 1528 1528 1529 1529 1529 1531 1533 1533 1535 1539 1540 1538 1533 1533 1535 1524 1521 1532 1532 1526 1529 1532 1534 1534 1534 1534 1534 1534 1535 1535 1535
1498 1501 1503 1506 1507 1509 1511 1512 1513 1515 1517 1519 1520 1522 1522 1525 1525 1524 1537 1536 1506 1491 1499 1500 1501 1504 1504 1506 1508 1507 1508 1508 1509 1511 1512 1514 1515 1516 1517 1519 1520 1522 1523 1525 1525 1523 1522 1523 1522 1524 1526 1525 1523 1524 1526 1526 1525 1526 1530 1531 1530 1532 1534 1534 1533 1534 1538 1540 1537 1532 1533 1534 1522 1518 1530 1532 1523 1522 1528 1533 1533 1533 1534 1534 1534 1535 1535 1536
1495 1498 1501 1504 1505 1508 1509 1509 1511 1513 1516 1518 1519 1520 1522 1524 1524 1531 1541 1524 1496 1494 1500 1499 1501 1503 1503 1506 1508 1508 1508 1508 1509 1510 1512 1514 1514 1515 1517 1518 1519 1521 1523 1524 1524 1523 1522 1522 1522 1522 1522 1521 1522 1526 1527 1527 1526 1527 1528 1528 1530 1533 1534 1536 1537 1536 1536 1536 1531 1526 1528 1531 1524 1516 1521 1526 1521 1520 1525 1531 1532 1533 1533 1533 1534 1534 1534 1535
1492 1495 1498 1501 1502 1503 1505 1506 1508 1511 1514 1516 1517 1520 1522 1522 1525 1532 1526 1503 1493 1497 1498 1499 1502 1501 1502 1505 1506 1507 1508 1509 1509 1509 1511 1513 1514 1515 1517 1518 1520 1524 1526 1525 1523 1524 1523 1522 1521 1519 1519 1520 1522 1525 1528 1528 1528 1528 1527 1527 1530 1533 1534 1536 1538 1538 1538 1533 1528 1529 1531 1533 1527 1514 1513 1519 1521 1523 1523 1524 1527 1530 1531 1532 1533 1533 1534 1535
1490 1492 1495 1498 1499 1500 1502 1503 1506 1511 1513 1514 1517 1518 1520 1526 1525 1519 1507 1494 1493 1494 1492 1496 1500 1499 1502 1504 1504 1506 1507 1508 1509 1509 1510 1513 1514 1514 1514 1515 1517 1522 1526 1525 1524 1524 1521 1519 1519 1518 1518 1519 1520 1524 1529 1530 1530 1529 1528 1529 1534 1538 1539 1538 1538 1542 1540 1532 1534 1538 1535 1532 1522 1509 1512 1517 1520 1523 1522 1521 1523 1525 1527 1530 1531 1532 1533 1534
1487 1489 1492 1494 1496 1497 1499 1502 1505 1509 1510 1512 1516 1515 1520 1525 1511 1496 1495 1492 1488 1487 1488 1492 1496 1498 1501 1502 1503 1505 1506 1507 1507 1509 1510 1512 1514 1514 1513 1514 1514 1515 1518 1524 1526 1524 1520 1517 1518 1518 1517 1516 1516 1521 1526 1527 1529 1529 1527 1529 1534 1541 1545 1541 1542 1547 1540 1530 1537 1541 1536 1529 1516 1508 1517 1522 1520 1522 1520 1519 1521 1522 1525 1527 1528 1530 1531 1532
1484 1487 1488 1490 1492 1494 1497 1500 1503 1506 1508 1510 1512 1515 1520 1514 1490 1480 1488 1487 1483 1485 1487 1489 1495 1499 1500 1500 1500 1501 1504 1506 1507 1508 1510 1512 1515 1514 1512 1513 1515 1512 1514 1522 1524 1523 1520 1514 1513 1514 1513 1512 1512 1514 1517 1520 1526 1529 1528 1528 1529 1532 1536 1534 1534 1535 1530 1527 1535 1540 1532 1520 1508 1509 1521 1523 1521 1521 1518 1517 1520 1521 1524 1526 1527 1529 1529 1530
1482 1483 1485 1487 1488 1490 1493 1497 1499 1502 1505 1505 1507 1510 1507 1493 1480 1479 1481 1479 1481 1485 1487 1490 1493 1498 1500 1499 1499 1498 1498 1502 1506 1508 1509 1511 1511 1509 1507 1507 1511 1511 1512 1516 1518 1521 1522 1513 1508 1510 1510 1510 1511 1512 1514 1518 1524 1530 1531 1530 1527 1523 1522 1526 1530 1531 1532 1531 1532 1533 1524 1512 1510 1517 1524 1522 1521 1521 1519 1518 1520 1521 1524 1525 1526 1526 1527 1528
1478 1479 1481 1481 1481 1484 1489 1493 1495 1498 1499 1499 1503 1501 1487 1474 1474 1476 1472 1471 1477 1481 1487 1493 1493 1496 1500 1498 1498 1498 1496 1498 1505 1507 1508 1509 1508 1505 1503 1501 1503 1506 1505 1507 1511 1516 1519 1513 1509 1511 1511 1511 1512 1511 1513 1515 1519 1528 1531 1525 1524 1523 1519 1524 1533 1536 1539 1535 1527 1524 1517 1510 1511 1516 1522 1523 1522 1522 1522 1521 1521 1522 1523 1524 1524 1525 1526 1527
1474 1474 1475 1474 1475 1480 1485 1487 1490 1493 1492 1492 1493 1487 1475 1470 1471 1471 1468 1468 1472 1476 1483 1489 1489 1491 1495 1496 1495 1496 1495 1497 1503 1504 1506 1507 1503 1499 1499 1497 1497 1499 1497 1499 1503 1506 1509 1509 1508 1510 1509 1511 1512 1512 1513 1514 1515 1524 1526 1520 1521 1525 1523 1526 1531 1535 1540 1537 1526 1518 1512 1509 1506 1509 1520 1526 1523 1523 1524 1523 1523 1523 1523 1523 1523 1524 1525 1526
1468 1470 1469 1467 1470 1476 1480 1483 1485 1486 1487 1486 1483 1477 1472 1472 1470 1469 1468 1468 1470 1474 1478 1481 1482 1484 1488 1491 1491 1492 1493 1496 1501 1503 1503 1503 1497 1491 1493 1493 1493 1496 1495 1496 1499 1502 1506 1507 1508 1510 1510 1511 1513 1512 1514 1515 1515 1517 1518 1517 1520 1524 1525 1528 1530 1531 1532 1531 1522 1513 1508 1507 1502 1503 1513 1516 1516 1520 1522 1522 1523 1521 1521 1522 1522 1523 1524 1524
1463 1465 1463 1460 1466 1472 1475 1478 1479 1481 1482 1480 1476 1472 1469 1469 1469 1468 1468 1467 1469 1472 1475 1476 1477 1481 1485 1485 1485 1489 1491 1492 1498 1500 1498 1498 1495 1489 1489 1490 1492 1494 1495 1496 1499 1501 1504 1506 1508 1511 1511 1511 1513 1513 1513 1514 1516 1517 1518 1519 1520 1521 1521 1523 1524 1522 1520 1521 1519 1512 1507 1501 1496 1498 1500 1499 1506 1514 1517 1519 1519 1517 1518 1519 1519 1520 1520 1521
1457 1460 1456 1456 1462 1467 1470 1474 1475 1475 1474 1469 1466 1466 1465 1466 1468 1467 1467 1468 1469 1470 1473 1473 1475 1479 1483 1484 1484 1485 1487 1490 1494 1495 1493 1493 1492 1489 1488 1489 1490 1494 1495 1496 1498 1500 1503 1506 1509 1512 1514 1513 1511 1510 1509 1509 1511 1514 1518 1520 1520 1520 1521 1521 1520 1516 1514 1516 1515 1513 1508 1496 1493 1500 1498 1495 1502 1508 1509 1512 1513 1514 1516 1516 1516 1516 1516 1519
1453 1454 1451 1452 1458 1462 1467 1470 1469 1467 1466 1463 1461 1462 1464 1465 1466 1466 1466 1467 1468 1469 1471 1472 1473 1475 1478 1481 1483 1482 1485 1488 1490 1491 1490 1490 1489 1488 1487 1487 1488 1492 1495 1498 1499 1499 1501 1504 1507 1510 1513 1511 1507 1507 1508 1507 1506 1508 1511 1512 1512 1515 1519 1521 1519 1513 1513 1513 1509 1510 1507 1494 1493 1503 1502 1500 1503 1504 1505 1508 1510 1512 1513 1512 1513 1514 1516 1519
1448 1447 1445 1448 1453 1457 1463 1465 1462 1461 1461 1458 1457 1458 1461 1462 1463 1465 1465 1466 1468 1469 1470 1472 1473 1475 1475 1476 1478 1479 1482 1485 1487 1488 1487 1486 1486 1485 1485 1486 1487 1488 1491 1496 1498 1497 1498 1501 1503 1506 1508 1507 1506 1507 1509 1508 1506 1507 1508 1508 1509 1511 1512 1513 1512 1509 1511 1513 1510 1511 1508 1497 1498 1506 1504 1503 1503 1503 1504 1506 1508 1509 1509 1510 1513 1515 1518 1519
1442 1443 1443 1446 1449 1453 1458 1460 1458 1458 1456 1453 1453 1455 1458 1460 1461 1464 1465 1466 1468 1469 1470 1472 1472 1473 1474 1474 1476 1477 1478 1481 1484 1485 1485 1485 1484 1483 1483 1485 1486 1487 1489 1493 1495 1495 1497 1500 1502 1503 1504 1506 1508 1507 1507 1508 1508 1508 1508 1508 1510 1510 1507 1508 1509 1508 1510 1508 1507 1513 1508 1496 1499 1505 1503 1503 1502 1502 1504 1504 1505 1507 1508 1510 1513 1515 1517 1517
1439 1441 1443 1444 1447 1450 1451 1451 1450 1451 1451 1450 1452 1454 1456 1457 1458 1460 1462 1464 1466 1467 1469 1470 1470 1470 1471 1472 1473 1475 1476 1479 1482 1482 1482 1484 1483 1482 1483 1484 1485 1486 1487 1488 1489 1491 1494 1497 1501 1506 1508 1509 1510 1509 1508 1508 1508 1508 1508 1510 1511 1509 1510 1513 1512 1513 1514 1505 1503 1510 1502 1492 1498 1504 1502 1503 1502 1502 1504 1505 1505 1507 1508 1510 1513 1514 1514 1514
1437 1441 1442 1443 1445 1447 1447 1445 1445 1447 1450 1451 1451 1452 1454 1456 1455 1456 1458 1461 1463 1464 1466 1467 1468 1468 1470 1472 1473 1474 1474 1475 1479 1480 1481 1483 1483 1483 1483 1483 1484 1484 1485 1486 1486 1486 1491 1495 1497 1502 1506 1506 1505 1505 1506 1505 1507 1509 1509 1509 1509 1509 1510 1510 1509 1512 1513 1505 1501 1501 1495 1492 1500 1502 1500 1502 1504 1504 1504 1505 1507 1508 1509 1511 1511 1512 1512 1512
1434 1438 1441 1443 1444 1445 1445 1444 1445 1447 1449 1450 1450 1450 1451 1454 1453 1454 1456 1458 1460 1462 1463 1465 1466 1469 1471 1473 1474 1475 1475 1474 1476 1479 1480 1482 1483 1483 1483 1483 1484 1484 1485 1486 1486 1486 1492 1495 1493 1493 1495 1495 1494 1497 1502 1503 1503 1504 1505 1504 1505 1508 1508 1508 1510 1510 1508 1505 1502 1496 1494 1497 1499 1499 1500 1502 1503 1504 1504 1505 1506 1507 1507 1508 1508 1509 1510 1510
1432 1434 1436 1439 1442 1443 1444 1444 1445 1446 1447 1448 1447 1446 1447 1450 1451 1453 1454 1456 1457 1459 1462 1464 1465 1468 1469 1471 1473 1473 1473 1475 1476 1477 1479 1480 1480 1483 1483 1483 1484 1485 1484 1485 1486 1487 1492 1493 1491 1491 1491 1491 1493 1496 1501 1503 1500 1499 1501 1500 1502 1508 1509 1508 1508 1504 1501 1505 1502 1494 1497 1500 1496 1496 1501 1500 1501 1503 1503 1503 1504 1504 1504 1505 1506 1508 1508 1509
1431 1432 1432 1434 1437 1438 1440 1440 1440 1443 1445 1446 1445 1444 1445 1447 1448 1450 1452 1454 1455 1457 1460 1463 1463 1463 1463 1465 1468 1471 1473 1476 1476 1475 1477 1478 1480 1482 1484 1484 1484 1484 1484 1486 1486 1487 1490 1490 1488 1492 1493 1494 1497 1499 1501 1502 1501 1500 1500 1498 1500 1507 1508 1506 1504 1500 1500 1501 1496 1492 1498 1499 1494 1495 1499 1498 1499 1500 1501 1502 1502 1502 1503 1504 1505 1506 1506 1506
1430 1431 1432 1433 1434 1434 1435 1435 1438 1441 1443 1445 1446 1444 1444 1445 1446 1446 1448 1452 1455 1455 1456 1458 1457 1457 1459 1461 1463 1466 1468 1469 1471 1471 1472 1474 1477 1480 1482 1483 1484 1484 1485 1486 1486 1486 1488 1488 1488 1492 1494 1495 1499 1501 1502 1504 1504 1502 1500 1498 1500 1506 1506 1503 1501 1501 1503 1502 1495 1494 1499 1498 1494 1495 1497 1497 1498 1499 1500 1500 1499 1500 1501 1502 1503 1503 1503 1503
1429 1430 1431 1433 1434 1434 1435 1435 1438 1440 1442 1445 1446 1443 1442 1443 1444 1444 1445 1448 1452 1452 1452 1452 1451 1452 1457 1458 1459 1460 1459 1459 1463 1465 1468 1472 1475 1477 1479 1478 1480 1484 1485 1485 1486 1486 1487 1489 1491 1493 1494 1496 1499 1503 1506 1507 1507 1504 1500 1499 1503 1507 1505 1503 1503 1504 1506 1504 1499 1500 1503 1499 1493 1493 1495 1496 1497 1498 1498 1497 1497 1498 1499 1499 1500 1500 1500 1500
1428 1430 1431 1433 1435 1435 1436 1436 1436 1439 1441 1442 1441 1440 1441 1442 1441 1443 1445 1444 1445 1448 1449 1448 1449 1452 1456 1458 1458 1456 1454 1456 1459 1461 1464 1468 1470 1471 1472 1472 1474 1480 1483 1484 1484 1484 1485 1490 1493 1494 1495 1495 1499 1506 1506 1506 1509 1507 1501 1500 1505 1505 1499 1499 1502 1502 1500 1498 1499 1503 1504 1497 1491 1491 1495 1495 1494 1495 1495 1495 1495 1496 1496 1497 1497 1497 1498 1499
1428 1430 1430 1433 1434 1434 1435 1435 1436 1438 1436 1434 1434 1436 1438 1439 1439 1443 1446 1444 1443 1445 1447 1447 1449 1453 1456 1457 1454 1452 1453 1457 1459 1460 1462 1464 1465 1466 1467 1468 1469 1473 1477 1481 1482 1482 1483 1486 1490 1493 1493 1495 1503 1508 1506 1508 1509 1500 1489 1491 1498 1498 1495 1496 1498 1495 1492 1493 1497 1498 1495 1490 1489 1492 1493 1492 1492 1493 1493 1492 1493 1493 1493 1494 1494 1495 1496 1497